Location: Bacharowice
(49.9333°N, 19.5833°E)
Time: 02:34:17
(UTC+00:00)

Terra - Pass Details

Date: 11 May 2021
Orbit: 701 x 703 km, 98.2° (Epoch: 22 June)

Event Time Altitude Azimuth Distance (km) Brightness Sun altitude
Exits shadow 21:32:47 18° 228° (SW) 1,680 3.5 -20.4°
Maximum altitude 21:34:59 25° 267° (W) 1,395 3.4 -20.5°
Drops below altitude 10° 21:38:57 10° 323° (NW) 2,183 5.3 -20.7°
Sets 21:41:35 0° 337° (NNW) 3,106 6.7 -20.8°
